Regional Weather Roundup
Issued by NWS Sterling, VA

Home | Current Version | Previous Version | Text Only | Print | Product List | Glossary On
Versions: 1 2 3 4 5 6 7 8 9 10 11 12 13 14 15 16 17 18 19 20 21 22 23 24 25 26 27 28 29 30 31 32 33 34 35 36 37 38 39 40 41 42 43 44 45 46 47
000
ASUS41 KLWX 251910
RWRLWX

REGIONAL WEATHER ROUNDUP
NATIONAL WEATHER SERVICE BALTIMORE MD/WASHINGTON DC
300 PM EDT SAT APR 25 2015

Note: "FAIR" indicates few or no clouds below 12,000 feet
with no significant weather and/or obstructions to visibility.
 TC=TEMPERATURE CELSIUS

 * =Non NWS site. Station does not report precipitation (e.g. rain,
    snow, etc.), thunder, or fog.

DCZ001-MDZ009-015-VAZ040>042-051-053>054-252000-
WASHINGTON METRO

CITY           SKY/WX    TMP DP  RH WIND       PRES   REMARKS
WASHINGTON NAT CLOUDY    53  32  44 SW3       29.85F
DULLES         CLOUDY    50  23  34 SW5       29.84F
ANDREWS AFB    PTSUNNY   51  33  50 VRB2      29.84F
FT BELVOIR     CLOUDY    50  33  51 S6        29.85F
QUANTICO       CLOUDY    49  29  46 SW6       29.87F
COLLEGE PARK*  CLOUDY    52  32  46 SW3       29.85F
LEESBURG*      CLOUDY    50  27  40 S3        29.85F
MANASSAS*      CLOUDY    50  27  40 SW6       29.86F
GAITHERSBURG*  CLOUDY    50  21  32 SW5       29.87F

$$

MDZ006>007-011-014-252000-
BALTIMORE METRO

CITY           SKY/WX    TMP DP  RH WIND       PRES   REMARKS
BWI AIRPORT    PTSUNNY   50  28  42 SW6       29.84F
MD SCIENCE CTR   N/A     54  28  36 MISG      29.84F
MARTIN STATE   MOSUNNY   54  28  37 W7        29.86F
ANNAPOLIS      CLOUDY    50  32  50 VRB3      29.84F
FORT MEADE*    CLOUDY    50  30  46 SW3       29.87F

$$

MDZ012-015-019>023-252000-
MARYLAND EASTERN SHORE

CITY           SKY/WX    TMP DP  RH WIND       PRES   REMARKS
OCEAN CITY     CLOUDY    47  32  56 S6        29.85F
SALISBURY      CLOUDY    49  29  46 W3        29.85F
BAY BRIDGE AP*   N/A    N/A N/A N/A S5        29.86F
CAMBRIDGE*     PTSUNNY   52  32  46 CALM      29.85F
EASTON*        MOSUNNY   50  30  46 SW6       29.90F

$$

MDZ017>025-252000-
SOUTHERN MARYLAND

CITY           SKY/WX    TMP DP  RH WIND       PRES   REMARKS
PATUXENT RIVER LGT RAIN  49  40  71 S7        29.86F
ST INIGOES     LGT RAIN  50  39  66 S8        29.85F
LEONARDTOWN*   CLOUDY    48  39  71 S7        29.87F

$$

MDZ003>005-252000-
NORTH CENTRAL MARYLAND

CITY           SKY/WX    TMP DP  RH WIND       PRES   REMARKS
FREDERICK*     CLOUDY    54  23  30 CALM      29.86F
HAGERSTOWN APT MOSUNNY   50  24  36 CALM      29.82F
WESTMINSTER*   MOSUNNY   48  19  32 SW3       29.83F

$$

MDZ501>502-252000-
WESTERN MARYLAND

CITY           SKY/WX    TMP DP  RH WIND       PRES   REMARKS
OAKLAND*       CLOUDY    41  27  56 SE5       29.77F
CUMBERLAND*    PTSUNNY   50  30  46 S5        29.85F

$$

VAZ025>031-252000-
SHENANDOAH VALLEY

CITY           SKY/WX    TMP DP  RH WIND       PRES   REMARKS
WINCHESTER*    CLOUDY    50  18  27 SE3       29.83F
FRONT ROYAL*   CLOUDY    48  27  43 CALM      29.81F
LURAY*         CLOUDY    50  30  46 S6        29.81F
NEW MARKET*    CLOUDY    48  26  41 CALM      29.82F
STAUNTON*      LGT RAIN  43  35  72 S6        29.85F
WAYNESBORO*    CLOUDY    39  35  85 S8        29.83F

$$

WVZ021-048>050-054>055-252000-
EASTERN WEST VIRGINIA PANHANDLE

CITY           SKY/WX    TMP DP  RH WIND       PRES   REMARKS
MARTINSBURG    CLOUDY    50  26  39 VRB3      29.83F
PETERSBURG*    DRIZZLE   46  26  46 CALM      29.80F

$$

VAZ036>039-050-252000-
CENTRAL FOOTHILLS

CITY           SKY/WX    TMP DP  RH WIND       PRES   REMARKS
CHARLOTTESVILL LGT RAIN  45  35  68 SW6       29.86F
CULPEPER*      CLOUDY    48  28  46 S3        29.86F
ORANGE*        LGT RAIN  50  30  46 SE3       29.87F
GORDONSVILLE*  CLOUDY    47  31  53 S5        29.85F
WARRENTON*     CLOUDY    49  31  50 S5        29.85F

$$

VAZ055>057-252000-
NORTH AND CENTRAL PIEDMONT

CITY           SKY/WX    TMP DP  RH WIND       PRES   REMARKS
FREDERICKSBRG* CLOUDY    49  38  67 S3        29.86F
STAFFORD*      DRIZZLE   47  31  54 S3        29.90F

$$

NCZ024-NYZ072-PAZ021-071-VAZ022-071-252000-
OTHER REGIONAL OBSERVATIONS

CITY           SKY/WX    TMP DP  RH WIND       PRES   REMARKS
NEW YORK CITY  SUNNY     58  22  24 VRB5      29.78F
PHILADELPHIA   PTSUNNY   56  23  27 SW15G21   29.81F
PITTSBURGH     CLOUDY    51  28  41 E9        29.77F
ROANOKE        LGT RAIN  44  40  85 E9        29.83F FOG
RICHMOND       LGT RAIN  48  42  80 NE5       29.87F
RALEIGH        LGT RAIN  56  55  97 S3        29.79F FOG

$$

ANZ530>537-252000-
MARINE OBSERVATIONS

STATION/POSITION TIME  TEMP    WIND        PRES
                       AIR SEA DIR/SP/G
                 (UTC) (F)     (DEG/KT/KT) (MB)
THOMAS PT LIGHT  1900   48 52  210/  7/  8 1011.3F
BALT KEY BRIDGE  1800   48     320/  4/  5 1011.8F
COVE POINT       1800   47     190/  8/  9 1012.4F
LEWISETTA        1800   49 56              1011.7F
SOLOMONS ISLAND  1800      55                N/A
PINEY POINT      1800          200/  9/ 11   N/A

$$



USA.gov is the U.S. government's official web portal to all federal, state and local government web resources and services.